Погода в Макуа

Республика Конго     0°00′22″N   15°36′48″E
темп.,
°C
ветер,
м/с
пор.,
м/с
влажн.,
%
обл.,
%
осадки,
мм/ч
давл.,
гПа
погр.,
м
5 августа, чт
чт501:00+24юз11475 0.0 101311
04:00+21зюз12590 0.0 101453
07:00+23зсз25535 0.0 1015155
10:00+32з23315 0.0 10141304
13:00+37з22235 0.0 10112868
16:00+36сз222443 0.0 10083016
19:00+30сз28399 0.0 1010209
22:00+28зсз31049100 0.0 1012430
6 августа, пт
пт601:00+25зсз156049 0.0 1012168
04:00+26зюз285950 0.1 1012721
07:00+23з298348 2.9 1015567
10:00+29зсз355454 0.0 10161189
13:00+32зсз234365 0.2 10121835
16:00+30зсз354741 0.1 10101032
19:00+26сз2569100 1.1 1012123
22:00+23зсз158441 0.3 1014137
7 августа, сб
сб701:00+23з21185100 1.1 1013422
04:00+22з21190100 0.1 1013465
07:00+23з31182100 0.1 1014599
10:00+30з354936 0.0 10141305
13:00+35з333598 0.0 10102704
16:00+32сз353984 0.1 1008904
19:00+25ссз377495 0.9 1012322
22:00+23с158899 0.4 1015333
8 августа, вс
вс801:00+22юв2396100 12.8 1015134
04:00+21ссз1297100 21.2 1015113
07:00+22з1993100 21.2 1015455
10:00+23зюз278394 0.0 1017706
13:00+30зюз245191 0.0 10131678
16:00+32вюв044143 0.0 10101957
19:00+26сз1163100 0.0 101329
22:00+25сз287158 0.0 1014245
9 августа, пн
пн901:00+22зсз178293 0.1 1014188
04:00+22юз1286100 1.1 101552
07:00+22сз169099 1.9 1016188
10:00+23сз1481100 0.0 1017213
13:00+24юв1178100 0.0 101454
16:00+24ссв2272100 0.2 101234
19:00+23всв1177100 0.2 101313
22:00+23св117987 0.0 101422